National Weather Service United States Department of Commerce


000
ASUS42 KCAE 280710
RWRCAE
REGIONAL WEATHER ROUNDUP
NATIONAL WEATHER SERVICE COLUMBIA SC
200 AM EST MON NOV 28 2022

NOTE: "FAIR" INDICATES FEW OR NO CLOUDS BELOW 12,000 FEET WITH NO
SIGNIFICANT WEATHER AND/OR OBSTRUCTIONS TO VISIBILITY.

NOT ALL STATIONS ARE QUALITY CONTROLLED BY THE NATIONAL
WEATHER SERVICE. USE DATA WITH CAUTION...ESPECIALLY
DEWPOINT OBSERVATIONS.

SCZ001>059-115-116-135>137-GAZ040-063>065-077-280800-
...UPSTATE SOUTH CAROLINA...

CITY SKY/WX TMP DP RH WIND PRES REMARKS
ANDERSON MOCLDY 57 46 66 SW12 29.82F
LIBERTY CLOUDY 57 46 65 MISG 29.81R
SPARTANBURG MOCLDY 54 41 62 SW5 29.80S
CLEMSON CLOUDY 57 45 64 W7 29.82S
GREENVILLE CLOUDY 57 44 62 SW8 29.81S
GREENWOOD CLEAR 53 45 74 SW8 29.84S
GREER PTCLDY 54 43 66 SW9 29.81R
ROCK HILL CLEAR 69 44 40 SW7 29.79S
CHESTER CLEAR 52 43 71 SW3 29.81S
LAURENS CLOUDY 55 45 67 SW8 29.82S


...CENTRAL SOUTH CAROLINA...

CITY SKY/WX TMP DP RH WIND PRES REMARKS
COLUMBIA APT CLEAR 55 46 71 SW7 29.83S
COLUMBIA OWENS CLEAR 69 47 45 W5 29.85R
MCENTIRE ANGB CLEAR 56 47 70 SW8 29.82S
ORANGEBURG CLEAR 55 46 71 SW7 29.86S
SUMTER SHAW CLEAR 57 46 67 SW8 29.81F
AIKEN FAIR 54 46 73 SW8 29.86S
MANNING FAIR 55 45 67 W6 29.85S
CAMDEN FAIR 59 46 63 SW13 29.82S
LANCASTER CLEAR 55 45 67 SW8 29.80R


...EASTERN AND COASTAL SOUTH CAROLINA...

CITY SKY/WX TMP DP RH WIND PRES REMARKS
MYRTLE BEACH CLEAR 61 48 62 W12 29.83S
N MYRTLE BCH CLEAR 61 47 59 W8 29.81R
CONWAY FAIR 59 46 63 SW7 29.83R
MARION FAIR 59 41 51 W10G16 29.81R
HARTSVILLE FAIR 57 45 62 W9 29.80S
FLORENCE CLEAR 59 47 64 W12 29.81S
DARLINGTON CLEAR 58 47 66 W9 29.80S
CHARLESTON APT CLEAR 59 46 62 W8 29.87S
MOUNT PLEASANT FAIR 61 50 67 CALM 29.87R
WALTERBORO CLEAR 55 45 67 W6 29.89S
BEAUFORT CLEAR 61 46 57 W8 29.89S
HILTON HEAD CLEAR 59 48 67 CALM 29.91S


...EASTERN GEORGIA...

CITY SKY/WX TMP DP RH WIND PRES REMARKS
AUGUSTA BUSH F CLEAR 52 45 77 SW5 29.87S
AUGUSTA DANIEL CLEAR 54 45 71 CALM 29.87S
THOMSON CLEAR 53 45 75 SW5 29.87S
WASHINGTON FAIR 53 45 74 W7 29.87S
CLAXTON FAIR 49 47 92 CALM 29.93R
SYLVANIA CLEAR 54 46 76 CALM 29.91R
STATESBORO CLEAR 50 45 82 CALM 29.91S
SAVANNAH CLEAR 55 45 68 W7 29.92R


...SOUTHERN NORTH CAROLINA...

CITY SKY/WX TMP DP RH WIND PRES REMARKS
CHARLOTTE CLEAR 54 43 66 W7 29.78S
MONROE CLEAR 53 43 68 SW8 29.78R
WADESBORO CLEAR 56 43 61 CALM 29.78R
RUTHERFORDTON MOCLDY 48 41 76 SW3 29.80S
ASHEVILLE CLOUDY 50 41 71 VRB5 29.81R

$$